TimeCST,TemperatureF,Dew PointF,Humidity,Sea Level PressureIn,VisibilityMPH,Wind Direction,Wind SpeedMPH,Gust SpeedMPH,PrecipitationIn,Events,Conditions,WindDirDegrees,DateUTC
12:58 AM,30.4,24.4,79,30.35,10.0,North,1.2,-,N/A,,Clear,360,2013-02-02 06:58:00
1:58 AM,28.4,24.4,85,30.34,10.0,NE,3.5,-,N/A,,Clear,40,2013-02-02 07:58:00
2:58 AM,31.8,22.1,67,30.35,10.0,NNE,4.6,-,N/A,,Clear,20,2013-02-02 08:58:00
3:58 AM,28.0,22.8,81,30.34,10.0,North,3.5,-,N/A,,Clear,10,2013-02-02 09:58:00
4:58 AM,27.3,22.5,82,30.34,10.0,Calm,Calm,-,N/A,,Clear,0,2013-02-02 10:58:00
5:58 AM,25.0,21.9,88,30.36,10.0,NNE,2.3,-,N/A,,Clear,20,2013-02-02 11:58:00
6:58 AM,25.5,22.1,87,30.37,10.0,Calm,Calm,-,N/A,,Clear,0,2013-02-02 12:58:00
7:58 AM,37.4,21.7,53,30.37,10.0,East,3.5,-,N/A,,Clear,100,2013-02-02 13:58:00
8:58 AM,45.7,15.6,30,30.37,10.0,SE,5.8,-,N/A,,Clear,130,2013-02-02 14:58:00
9:58 AM,50.0,15.8,26,30.36,10.0,South,6.9,-,N/A,,Clear,180,2013-02-02 15:58:00
10:58 AM,53.8,18.0,24,30.34,10.0,Variable,2.3,-,N/A,,Clear,0,2013-02-02 16:58:00
11:55 AM,57.4,23.2,27,30.31,10.0,Variable,5.8,-,N/A,,Clear,0,2013-02-02 17:55:00
12:55 PM,60.3,27.9,29,30.27,10.0,South,9.2,-,N/A,,Clear,190,2013-02-02 18:55:00
1:56 PM,61.5,34.0,36,30.25,10.0,SSW,9.2,-,N/A,,Clear,210,2013-02-02 19:56:00
2:55 PM,61.0,36.5,40,30.23,10.0,South,10.4,-,N/A,,Partly Cloudy,180,2013-02-02 20:55:00
3:58 PM,60.3,38.5,44,30.21,10.0,South,9.2,-,N/A,,Clear,170,2013-02-02 21:58:00
4:58 PM,57.6,41.9,56,30.20,10.0,South,8.1,-,N/A,,Clear,180,2013-02-02 22:58:00
5:58 PM,50.5,42.6,74,30.20,10.0,South,5.8,-,N/A,,Clear,180,2013-02-02 23:58:00
6:58 PM,46.9,41.4,81,30.21,10.0,Calm,Calm,-,N/A,,Clear,0,2013-02-03 00:58:00
7:58 PM,45.5,41.5,86,30.21,10.0,SSW,4.6,-,N/A,,Clear,210,2013-02-03 01:58:00
8:58 PM,52.7,44.1,72,30.20,10.0,SW,5.8,-,N/A,,Clear,230,2013-02-03 02:58:00
9:58 PM,54.0,43.9,69,30.19,10.0,SW,8.1,-,N/A,,Mostly Cloudy,220,2013-02-03 03:58:00
10:58 PM,53.8,44.1,70,30.19,10.0,SW,4.6,-,N/A,,Clear,230,2013-02-03 04:58:00
11:58 PM,55.4,46.4,72,30.17,10.0,WSW,4.6,-,N/A,,Overcast,240,2013-02-03 05:58:00